Regional Weather Roundup
Issued by NWS

Home | Current Version | Previous Version | Text Only | Print | Product List | Glossary On
Versions: 1 2 3 4 5 6 7 8 9 10 11 12 13 14 15 16 17 18 19 20 21 22 23 24 25 26 27 28 29 30 31 32 33 34 35 36 37 38 39 40 41 42 43 44 45 46 47 48 49 50
000
ASUS43 KTOP 050208
RWRKS

WEATHER ROUNDUP FOR KANSAS
NATIONAL WEATHER SERVICE GOODLAND KS
900 PM CDT WED MAY 04 2016

NOTE:  "FAIR" INDICATES FEW OR NO CLOUDS BELOW 12,000 FEET WITH NO
SIGNIFICANT WEATHER AND/OR OBSTRUCTIONS TO VISIBILITY.

KSZ001>006-013>018-027>032-041>047-050300-
NORTHWEST KANSAS

CITY           SKY/WX    TMP DP  RH WIND       PRES   REMARKS
GOODLAND       CLEAR     60  45  57 E8        30.10S
HAYS           CLEAR     64  43  45 CALM      30.06R
HILL CITY      CLEAR     63  42  46 NE5       30.07R
RUSSELL        CLEAR     62  41  46 NE5       30.04R
$$

KSZ061>065-074>080-084>089-050300-
SOUTHWEST KANSAS

CITY           SKY/WX    TMP DP  RH WIND       PRES   REMARKS
DODGE CITY     CLEAR     64  45  49 E6        30.08R
ELKHART          N/A     63  47  56 SE7         N/A
GARDEN CITY    CLEAR     64  46  52 E7        30.08R
GREAT BEND     CLEAR     63  43  48 N5        30.06R
LIBERAL        CLEAR     68  43  40 SE6       30.10R
PRATT          CLEAR     61  41  46 N5        30.06R
$$

KSZ066>073-081>083-090>101-050300-
SOUTHEAST KANSAS

CITY           SKY/WX    TMP DP  RH WIND       PRES   REMARKS
CHANUTE        CLEAR     63  38  39 N5        29.99R
COFFEYVILLE    CLEAR     61  39  44 N5        29.99R
HUTCHINSON     CLEAR     54  42  64 N3        30.04R
MEDICINE LODGE   N/A     65  44  46 N3        30.05R
NEWTON         CLEAR     59  37  44 NW3       30.05S
PARSONS        CLEAR     58  41  53 N3        30.00R
WICHITA INTL   CLEAR     65  35  33 N7        30.03R
WICHITA JABRA  CLEAR     60  40  47 NW6       30.03R
WICHITA MCCONL CLEAR     63  37  38 N6        30.03R
WINFIELD       CLEAR     60  41  49 N5        30.42S
$$

KSZ007>012-019>026-033>040-048>060-102>105-050300-
NORTHEAST KANSAS

CITY           SKY/WX    TMP DP  RH WIND       PRES   REMARKS
CONCORDIA      CLEAR     62  32  32 N5        30.03R
EMPORIA        CLEAR     60  39  45 NW5       30.01R
LAWRENCE         N/A     57  39  51 MISG      29.99R
MANHATTAN      CLEAR     63  36  36 N3        30.01R
MARYSVILLE     CLEAR     57  41  54 N3        30.01S
OLATHE IND     CLEAR     56  40  55 NW6       29.99R
OLATHE EXE     CLEAR     61  36  39 NW3       29.98R
SALINA         CLEAR     64  41  42 CALM      30.03S
TOPEKA BILLARD CLEAR     60  39  45 NW3       30.00R
TOPEKA FORBES  CLEAR     61  38  42 N6        30.00R
$$



USA.gov is the U.S. government's official web portal to all federal, state and local government web resources and services.